• In Netherlands
  • List of Countries
  • For 7 days
  • Water Temperature
  • Satellite Maps
  • Weather Map
  • Weather Widgets
  • user-avatar
    Login

    Hourly Weather Shumen

    Today, 23 February, Thursday

    Time Temperature Precipitation Wind Pressure Humidity
    00:00 +3°C° 0 mm 3 mps 729 mmHg 84%
    01:00 +3°C° 0 mm 3 mps 729 mmHg 83%
    02:00 +3°C° 0 mm 3 mps 728 mmHg 82%
    03:00 +3°C° 0 mm 3 mps 728 mmHg 82%
    04:00 +3°C° 0 mm 3 mps 728 mmHg 81%
    05:00 +3°C° 0 mm 3 mps 728 mmHg 81%
    06:00 +3°C° 0 mm 3 mps 728 mmHg 80%
    07:00 +3°C° 0 mm 3 mps 728 mmHg 79%
    08:00 +4°C° 0 mm 3 mps 728 mmHg 78%
    09:00 +5°C° 0 mm 4 mps 728 mmHg 74%
    10:00 +7°C° 0 mm 4 mps 729 mmHg 70%
    11:00 +10°C° 0 mm 4 mps 729 mmHg 66%
    12:00 +11°C° 0 mm 4 mps 729 mmHg 63%
    13:00 +12°C° 0 mm 5 mps 729 mmHg 61%
    14:00 +13°C° 0 mm 5 mps 728 mmHg 58%
    15:00 +12°C° 0 mm 4 mps 728 mmHg 63%
    16:00 +12°C° 0 mm 3 mps 728 mmHg 68%
    17:00 +11°C° 0 mm 3 mps 728 mmHg 72%
    18:00 +10°C° 0 mm 3 mps 728 mmHg 75%
    19:00 +8°C° 0 mm 3 mps 728 mmHg 78%
    20:00 +7°C° 0 mm 2 mps 729 mmHg 81%
    21:00 +7°C° 0 mm 2 mps 728 mmHg 82%
    22:00 +7°C° 0 mm 2 mps 728 mmHg 83%
    23:00 +6°C° 0 mm 2 mps 728 mmHg 84%

    Tomorrow, 24 February, Friday

    Time Temperature Precipitation Wind Pressure Humidity
    00:00 +6°C° 0 mm 2 mps 728 mmHg 85%
    01:00 +5°C° 0 mm 3 mps 728 mmHg 87%
    02:00 +4°C° 0 mm 3 mps 728 mmHg 89%
    03:00 +4°C° 0 mm 3 mps 728 mmHg 89%
    04:00 +4°C° 0 mm 3 mps 727 mmHg 90%
    05:00 +4°C° 0 mm 3 mps 727 mmHg 91%
    06:00 +4°C° 0 mm 3 mps 727 mmHg 91%
    07:00 +4°C° 0 mm 3 mps 727 mmHg 90%
    08:00 +4°C° 0 mm 3 mps 727 mmHg 90%
    09:00 +7°C° 0 mm 3 mps 727 mmHg 84%
    10:00 +8°C° 0 mm 4 mps 727 mmHg 77%
    11:00 +11°C° 0 mm 4 mps 728 mmHg 71%
    12:00 +12°C° 0 mm 4 mps 727 mmHg 67%
    13:00 +13°C° 0 mm 4 mps 727 mmHg 63%
    14:00 +14°C° 0 mm 4 mps 727 mmHg 59%
    15:00 +14°C° 0 mm 4 mps 727 mmHg 63%
    16:00 +13°C° 0 mm 3 mps 727 mmHg 68%
    17:00 +12°C° 0 mm 3 mps 727 mmHg 72%
    18:00 +11°C° 0 mm 3 mps 727 mmHg 76%
    19:00 +10°C° 0 mm 3 mps 727 mmHg 80%
    20:00 +9°C° 0 mm 3 mps 727 mmHg 84%
    21:00 +8°C° 0 mm 3 mps 727 mmHg 86%
    22:00 +8°C° 0 mm 3 mps 727 mmHg 87%
    23:00 +7°C° 0 mm 3 mps 727 mmHg 89%

    Day after tomorrow, 25 February, Saturday

    Time Temperature Precipitation Wind Pressure Humidity
    00:00 +6°C° 0 mm 4 mps 727 mmHg 89%
    01:00 +6°C° 0 mm 4 mps 726 mmHg 89%
    02:00 +6°C° 0 mm 4 mps 726 mmHg 89%
    03:00 +5°C° 0 mm 4 mps 726 mmHg 89%
    04:00 +5°C° 0 mm 4 mps 726 mmHg 89%
    05:00 +5°C° 0 mm 4 mps 725 mmHg 89%
    06:00 +6°C° 0 mm 4 mps 726 mmHg 88%
    07:00 +6°C° 0 mm 4 mps 726 mmHg 88%
    08:00 +6°C° 0 mm 4 mps 726 mmHg 88%
    09:00 +8°C° 0.1 mm 5 mps 727 mmHg 84%
    10:00 +9°C° 0.1 mm 5 mps 727 mmHg 81%
    11:00 +10°C° 0.1 mm 5 mps 728 mmHg 77%
    12:00 +9°C° 0.4 mm 5 mps 728 mmHg 80%
    13:00 +8°C° 0.4 mm 5 mps 728 mmHg 83%
    14:00 +7°C° 0.4 mm 5 mps 729 mmHg 86%
    15:00 +6°C° 0.7 mm 5 mps 729 mmHg 87%
    16:00 +3°C° 0.7 mm 5 mps 730 mmHg 88%
    17:00 +2°C° 0.7 mm 5 mps 731 mmHg 89%
    18:00 +1°C° 1 mm 5 mps 732 mmHg 90%
    19:00 +1°C° 1 mm 4 mps 733 mmHg 90%
    20:00 0°C° 1 mm 4 mps 734 mmHg 91%
    21:00 +1°C° 0.5 mm 3 mps 735 mmHg 91%
    22:00 +2°C° 0.5 mm 2 mps 735 mmHg 91%
    23:00 +2°C° 0.5 mm 2 mps 736 mmHg 92%

    26 February, Sunday

    Time Temperature Precipitation Wind Pressure Humidity
    00:00 +2°C° 0 mm 2 mps 737 mmHg 92%
    01:00 +1°C° 0 mm 2 mps 737 mmHg 92%
    02:00 +1°C° 0 mm 2 mps 737 mmHg 92%
    03:00 +1°C° 0 mm 2 mps 738 mmHg 90%
    04:00 +1°C° 0 mm 2 mps 738 mmHg 89%
    05:00 -1°C° 0 mm 2 mps 738 mmHg 88%
    06:00 -1°C° 0 mm 2 mps 739 mmHg 86%
    07:00 -1°C° 0 mm 2 mps 739 mmHg 84%
    08:00 -1°C° 0 mm 2 mps 739 mmHg 81%
    09:00 +1°C° 0 mm 2 mps 739 mmHg 76%
    10:00 +1°C° 0 mm 3 mps 739 mmHg 71%
    11:00 +3°C° 0 mm 4 mps 740 mmHg 65%
    12:00 +3°C° 0 mm 4 mps 739 mmHg 64%
    13:00 +4°C° 0 mm 4 mps 739 mmHg 63%
    14:00 +5°C° 0 mm 4 mps 738 mmHg 62%
    15:00 +4°C° 0 mm 4 mps 738 mmHg 65%
    16:00 +4°C° 0 mm 3 mps 737 mmHg 69%
    17:00 +3°C° 0 mm 3 mps 737 mmHg 72%
    18:00 +2°C° 0 mm 3 mps 737 mmHg 76%
    19:00 +1°C° 0 mm 3 mps 737 mmHg 80%
    20:00 0°C° 0 mm 3 mps 736 mmHg 83%
    21:00 0°C° 0 mm 3 mps 736 mmHg 84%
    22:00 -1°C° 0 mm 3 mps 736 mmHg 85%
    23:00 -1°C° 0 mm 3 mps 736 mmHg 86%

    27 February, Monday

    Time Temperature Precipitation Wind Pressure Humidity
    00:00 -1°C° 0 mm 2 mps 735 mmHg 87%
    01:00 -1°C° 0 mm 2 mps 735 mmHg 87%
    02:00 -1°C° 0 mm 2 mps 734 mmHg 88%
    03:00 -1°C° 0 mm 2 mps 734 mmHg 88%
    04:00 -1°C° 0 mm 2 mps 734 mmHg 88%
    05:00 -1°C° 0 mm 2 mps 733 mmHg 88%
    06:00 -1°C° 0 mm 2 mps 733 mmHg 86%
    07:00 +1°C° 0 mm 2 mps 733 mmHg 84%
    08:00 +2°C° 0 mm 1 mps 733 mmHg 82%
    09:00 +4°C° 0 mm 1 mps 733 mmHg 77%
    10:00 +6°C° 0 mm 1 mps 733 mmHg 71%
    11:00 +7°C° 0 mm 1 mps 733 mmHg 66%
    12:00 +8°C° 0 mm 1 mps 733 mmHg 64%
    13:00 +9°C° 0 mm 1 mps 733 mmHg 63%
    14:00 +9°C° 0 mm 0 mps 732 mmHg 62%
    15:00 +10°C° 0 mm 1 mps 732 mmHg 66%
    16:00 +9°C° 0 mm 1 mps 732 mmHg 71%
    17:00 +8°C° 0 mm 1 mps 732 mmHg 76%
    18:00 +7°C° 0 mm 1 mps 732 mmHg 79%
    19:00 +6°C° 0 mm 1 mps 732 mmHg 83%
    20:00 +5°C° 0 mm 1 mps 732 mmHg 87%
    21:00 +4°C° 0 mm 1 mps 732 mmHg 88%
    22:00 +4°C° 0 mm 1 mps 732 mmHg 88%
    23:00 +4°C° 0 mm 1 mps 733 mmHg 89%

    28 February, Tuesday

    Time Temperature Precipitation Wind Pressure Humidity
    00:00 +3°C° 0 mm 1 mps 732 mmHg 89%
    01:00 +3°C° 0 mm 1 mps 732 mmHg 90%
    02:00 +3°C° 0 mm 1 mps 732 mmHg 90%
    03:00 +2°C° 0 mm 1 mps 732 mmHg 90%
    04:00 +2°C° 0 mm 1 mps 732 mmHg 90%
    05:00 +2°C° 0 mm 1 mps 732 mmHg 90%
    06:00 +3°C° 0 mm 1 mps 732 mmHg 89%
    07:00 +3°C° 0 mm 1 mps 733 mmHg 88%
    08:00 +4°C° 0 mm 1 mps 733 mmHg 86%
    09:00 +4°C° 0 mm 2 mps 733 mmHg 81%
    10:00 +6°C° 0 mm 2 mps 733 mmHg 75%
    11:00 +8°C° 0 mm 2 mps 734 mmHg 70%
    12:00 +8°C° 0 mm 3 mps 733 mmHg 68%
    13:00 +9°C° 0 mm 3 mps 733 mmHg 66%
    14:00 +10°C° 0 mm 3 mps 733 mmHg 64%
    15:00 +9°C° 0 mm 3 mps 733 mmHg 68%
    16:00 +9°C° 0 mm 3 mps 732 mmHg 72%
    17:00 +8°C° 0 mm 3 mps 732 mmHg 75%
    18:00 +7°C° 0 mm 3 mps 732 mmHg 81%
    19:00 +4°C° 0 mm 3 mps 732 mmHg 87%
    20:00 +3°C° 0 mm 3 mps 732 mmHg 92%
    21:00 +2°C° 0 mm 3 mps 732 mmHg 93%
    22:00 +2°C° 0 mm 3 mps 732 mmHg 93%
    23:00 +3°C° 0 mm 2 mps 732 mmHg 94%
    Show more